This is the latest recevied weather packets stored in our database for station/object N1SU-13. If no packets are shown the sender has not sent any weather packets the latest 10 day(s).
| Time | Temp. | Humidity | Pressure | Rain* | Wind** | Luminosity | Snow |
|---|---|---|---|---|---|---|---|
| 1778118002 | 12.22° C | 79% | 1019.4 hPa | - | - | - | - |
| 1778117378 | 12.22° C | 79% | 1019.4 hPa | - | - | - | - |
| 1778116740 | 12.22° C | 78% | 1019.4 hPa | - | - | - | - |
| 1778116097 | 12.22° C | 78% | 1019.5 hPa | - | - | - | - |
| 1778115523 | 12.22° C | 77% | 1019.4 hPa | - | - | - | - |
| 1778114961 | 12.78° C | 77% | 1019.5 hPa | - | - | - | - |
| 1778114349 | 12.78° C | 76% | 1019.5 hPa | - | - | - | - |
| 1778113679 | 12.78° C | 77% | 1019.5 hPa | - | - | - | - |
| 1778113070 | 12.22° C | 78% | 1019.5 hPa | - | - | - | - |
| 1778112504 | 12.22° C | 79% | 1019.6 hPa | - | - | - | - |
| 1778111857 | 11.67° C | 80% | 1019.6 hPa | - | - | - | - |
| 1778111219 | 11.67° C | 80% | 1019.6 hPa | - | - | - | - |
| 1778110587 | 11.67° C | 80% | 1019.6 hPa | - | - | - | - |
| 1778110007 | 11.67° C | 81% | 1019.8 hPa | - | - | - | - |
| 1778109414 | 11.67° C | 81% | 1019.8 hPa | - | - | - | - |
| 1778108715 | 11.67° C | 82% | 1019.9 hPa | - | - | - | - |
| 1778108055 | 11.67° C | 83% | 1019.7 hPa | - | - | - | - |
| 1778107490 | 11.67° C | 83% | 1019.8 hPa | - | - | - | - |
| 1778106790 | 11.67° C | 84% | 1020 hPa | - | - | - | - |
| 1778106089 | 11.67° C | 84% | 1019.9 hPa | - | - | - | - |
| 1778105448 | 11.11° C | 85% | 1019.9 hPa | - | - | - | - |
| 1778104870 | 11.11° C | 86% | 1020 hPa | - | - | - | - |
| 1778104277 | 11.11° C | 86% | 1019.9 hPa | - | - | - | - |
| 1778103652 | 11.11° C | 88% | - | - | - | - | - |
| 1778102984 | 11.67° C | 88% | 1020 hPa | - | - | - | - |
* Rain since midnight (hover to see other rain measurements)
** Current wind speed in m/s (hover to see current wind gust speed)